Spokane Fairchild, WA

8:46 PM PST on November 19, 2017 (GMT -0800)
Fairchild Air Force Base

Weather History for KSKA - December, 2012

Change the Weather History Date:

Wednesday, December 12, 2012

  Actual Average Record
Temperature  
Mean Temperature 30 °F -  
Max Temperature 32 °F 33 °F 50 °F (2002)
Min Temperature 29 °F 24 °F 8 °F (2000)
Degree Days  
Heating Degree Days 34    
Moisture  
Dew Point 32 °F    
Average Humidity 100    
Maximum Humidity 100    
Minimum Humidity 100    
Precipitation  
Precipitation 0.15 in - - ()
Snow  
Snow 0.00 in - - ()
Snow Depth 2.00 in    
Sea Level Pressure  
Sea Level Pressure 29.72 in    
Wind  
Wind Speed 3 mph (SW)    
Max Wind Speed 12 mph    
Max Gust Speed -    
Visibility 4 miles    
Events Fog , Rain , Snow    
Averages and records for this station are not official NWS values.
T = Trace of Precipitation, MM = Missing Value Source: NWS Daily Summary

Daily Weather History Graph

Daily Weather History Graph

Search for Another Location

Airport or City:

Trip Planner

Search our weather history database for the weather conditions in past years. The results will help you decide how hot, cold, wet, or windy it might be!

Date:

Astronomy

Dec. 12, 2012 Rise Set
Actual Time 7:30 AM PST 3:59 PM PST
Civil Twilight 6:54 AM PST 4:34 PM PST
Nautical Twilight 6:15 AM PST 5:14 PM PST
Astronomical Twilight 5:37 AM PST 5:51 PM PST
Moon 6:38 AM PST (12/12) 3:42 PM PST (12/12)
Length of Visible Light 9h 40m
Length of Day
8h 28m
Waning Crescent, 0% of the Moon is Illuminated
Dec 12
Waning Crescent
Dec 13
New
Dec 19
First Quarter
Dec 28
Full
Jan 4
Last Quarter

Hourly Weather History & Observations

Time (PST) Temp. Windchill Dew Point Humidity Pressure Visibility Wind Dir Wind Speed Gust Speed Precip Events Conditions
12:03 AM 32.0 °F - 32.0 °F 100% 29.54 in 1.5 mi ENE 1.2 mph - N/A Snow Light Snow
12:08 AM 32.0 °F - 32.0 °F 100% 29.54 in 1.2 mi ENE 1.2 mph - N/A Snow Light Snow
12:13 AM 32.0 °F - 32.0 °F 100% 29.54 in 1.2 mi East 1.2 mph - N/A Snow Light Snow
12:18 AM 32.0 °F - 32.0 °F 100% 29.54 in 1.2 mi ESE 1.2 mph - N/A Snow Light Snow
12:28 AM 32.0 °F - 32.0 °F 100% 29.54 in 1.2 mi ESE 2.3 mph - N/A Snow Light Snow
12:43 AM 32.0 °F - 32.0 °F 100% 29.54 in 1.2 mi SE 2.3 mph - N/A Snow Light Snow
12:48 AM 32.0 °F - 32.0 °F 100% 29.54 in 1.2 mi SE 2.3 mph - N/A Snow Light Snow
12:53 AM 32.0 °F - 32.0 °F 100% 29.54 in 1.0 mi SE 2.3 mph - N/A Snow Light Snow
12:58 AM 32.0 °F - 32.0 °F 100% 29.60 in 1.0 mi SE 2.3 mph - 0.05 in Snow Light Snow
1:13 AM 32.0 °F - 32.0 °F 100% 29.54 in 1.0 mi ESE 2.3 mph - N/A Snow Light Snow
1:18 AM 32.0 °F - 32.0 °F 100% 29.54 in 1.0 mi ESE 2.3 mph - N/A Snow Light Snow
1:33 AM 32.0 °F 28.7 °F 32.0 °F 100% 29.54 in 1.2 mi SE 3.5 mph - N/A Snow Light Snow
1:43 AM 32.0 °F - 32.0 °F 100% 29.54 in 1.5 mi SSE 2.3 mph - N/A Snow Light Snow
1:48 AM 32.0 °F - 32.0 °F 100% 29.54 in 2.0 mi SSE 2.3 mph - N/A Snow Light Snow
1:53 AM 32.0 °F - 32.0 °F 100% 29.54 in 3.0 mi SSE 2.3 mph - N/A Snow Light Snow
1:58 AM 32.2 °F - 32.2 °F 100% 29.60 in 4.0 mi SSE 2.3 mph - 0.02 in Snow Light Snow
2:08 AM 32.0 °F - 32.0 °F 100% 29.54 in 4.0 mi South 2.3 mph - N/A Snow Light Snow
2:13 AM 32.0 °F - 32.0 °F 100% 29.54 in 3.0 mi South 2.3 mph - N/A Snow Light Snow
2:23 AM 32.0 °F - 32.0 °F 100% 29.54 in 3.0 mi South 2.3 mph - N/A Snow Light Snow
2:28 AM 32.0 °F - 32.0 °F 100% 29.54 in 3.0 mi SSE 2.3 mph - N/A Snow Light Snow
2:33 AM 32.0 °F - 32.0 °F 100% 29.54 in 3.0 mi SE 2.3 mph - N/A Snow Light Snow
2:48 AM 32.0 °F - 32.0 °F 100% 29.55 in 3.0 mi South 1.2 mph - N/A Rain Light Rain
2:58 AM 32.2 °F - 32.2 °F 100% 29.60 in 5.0 mi South 2.3 mph - 0.01 in Snow Light Snow
2:59 AM 32.0 °F - 32.0 °F 100% 29.54 in 5.0 mi South 2.3 mph - N/A Snow Light Snow
3:04 AM 32.0 °F - 32.0 °F 100% 29.54 in 5.0 mi South 2.3 mph - N/A Snow Light Snow
3:19 AM 32.0 °F - 32.0 °F 100% 29.54 in 3.0 mi SSE 2.3 mph - N/A Snow Light Snow
3:24 AM 32.0 °F - 32.0 °F 100% 29.55 in 2.5 mi SSE 2.3 mph - N/A Snow Light Snow
3:34 AM 32.0 °F - 32.0 °F 100% 29.55 in 3.0 mi South 2.3 mph - N/A Snow Light Snow
3:44 AM 32.0 °F - 32.0 °F 100% 29.55 in 3.0 mi South 2.3 mph - N/A Snow Light Snow
3:58 AM 32.2 °F 28.9 °F 32.2 °F 100% 29.61 in 4.0 mi SSE 3.5 mph - 0.01 in Snow Light Snow
4:08 AM 32.0 °F - 32.0 °F 100% 29.55 in 5.0 mi SSE 2.3 mph - N/A Snow Light Snow
4:13 AM 32.0 °F - 32.0 °F 100% 29.55 in 6.0 mi SSE 2.3 mph - N/A Snow Light Snow
4:45 AM 32.0 °F - 32.0 °F 100% 29.56 in 9.0 mi South 2.3 mph - N/A   Overcast
4:51 AM 32.0 °F - 32.0 °F 100% 29.56 in 7.0 mi South 2.3 mph - N/A Snow Light Snow
4:58 AM 32.2 °F - 32.2 °F 100% 29.62 in 6.0 mi South 2.3 mph - 0.00 in Snow Light Snow
5:08 AM 32.0 °F 28.7 °F 32.0 °F 100% 29.56 in 5.0 mi SSW 3.5 mph - N/A Rain Light Rain
5:16 AM 32.0 °F - 32.0 °F 100% 29.56 in 2.5 mi SSW 2.3 mph - N/A   Overcast
5:21 AM 32.0 °F - 32.0 °F 100% 29.56 in 1.5 mi SSW 2.3 mph - N/A   Overcast
5:31 AM 32.0 °F 28.7 °F 32.0 °F 100% 29.57 in 2.0 mi SW 3.5 mph - N/A   Overcast
5:36 AM 32.0 °F - 32.0 °F 100% 29.57 in 3.0 mi SW 2.3 mph - N/A   Overcast
5:51 AM 32.0 °F - 32.0 °F 100% 29.57 in 10.0 mi SW 2.3 mph - N/A   Overcast
5:58 AM 32.4 °F - 32.4 °F 100% 29.64 in 10.0 mi WSW 2.3 mph - 0.00 in   Overcast
6:33 AM 32.0 °F - 32.0 °F 100% 29.59 in 9.0 mi WSW 2.3 mph - N/A   Overcast
6:43 AM 32.0 °F 28.7 °F 32.0 °F 100% 29.60 in 2.5 mi West 3.5 mph - N/A   Overcast
6:46 AM 32.0 °F 28.7 °F 32.0 °F 100% 29.60 in 1.5 mi West 3.5 mph - N/A   Overcast
6:51 AM 32.0 °F - 32.0 °F 100% 29.60 in 1.0 mi WSW 2.3 mph - N/A   Mist
6:55 AM 32.0 °F 28.7 °F 32.0 °F 100% 29.60 in 1.0 mi West 3.5 mph - N/A   Mist
6:58 AM 32.0 °F 28.7 °F 32.0 °F 100% 29.66 in 1.0 mi West 3.5 mph - 0.00 in   Mist
6:59 AM 32.0 °F 28.7 °F 32.0 °F 100% 29.60 in 1.0 mi West 3.5 mph - N/A   Mist
7:04 AM 32.0 °F 28.7 °F 32.0 °F 100% 29.60 in 1.0 mi West 3.5 mph - N/A   Mist
7:19 AM 32.0 °F 27.5 °F 32.0 °F 100% 29.61 in 0.8 mi WSW 4.6 mph - N/A   Mist
7:24 AM 32.0 °F 28.7 °F 32.0 °F 100% 29.61 in 0.5 mi WSW 3.5 mph - N/A Fog Fog
7:34 AM 32.0 °F 28.7 °F 32.0 °F 100% 29.62 in 0.2 mi WSW 3.5 mph - N/A Fog Fog
7:45 AM 32.0 °F 28.7 °F 32.0 °F 100% 29.62 in 0.2 mi WSW 3.5 mph - N/A Fog Fog
7:50 AM 32.0 °F - 32.0 °F 100% 29.62 in 0.2 mi WSW 2.3 mph - N/A Fog Fog
7:58 AM 32.2 °F - 32.2 °F 100% 29.70 in 0.2 mi WSW 2.3 mph - 0.00 in Fog Fog
8:21 AM 32.0 °F - 32.0 °F 100% 29.64 in 0.2 mi WSW 2.3 mph - N/A Fog Light Drizzle
8:36 AM 32.0 °F - 32.0 °F 100% 29.65 in 0.2 mi WSW 2.3 mph - N/A Fog , Rain Light Rain
8:42 AM 32.0 °F - 32.0 °F 100% 29.65 in 0.2 mi WSW 2.3 mph - N/A Fog Fog
8:52 AM 32.0 °F 28.7 °F 32.0 °F 100% 29.65 in 0.5 mi WSW 3.5 mph - N/A Fog Fog
8:58 AM 32.0 °F 28.7 °F 32.0 °F 100% 29.73 in 0.5 mi WSW 3.5 mph - 0.00 in Fog Fog
9:23 AM 32.0 °F - 32.0 °F 100% 29.67 in 0.8 mi SW 2.3 mph - N/A   Overcast
9:33 AM 32.0 °F - 32.0 °F 100% 29.67 in 0.8 mi SSW 2.3 mph - N/A   Overcast
9:38 AM 32.0 °F - 32.0 °F 100% 29.67 in 0.5 mi South 2.3 mph - N/A Fog Fog
9:43 AM 32.0 °F - 32.0 °F 100% 29.68 in 0.5 mi SSW 2.3 mph - N/A Fog Fog
9:58 AM 32.0 °F - 32.0 °F 100% 29.75 in 0.5 mi SW 2.3 mph - N/A Fog Fog
10:03 AM 32.0 °F 28.7 °F 32.0 °F 100% 29.69 in 0.8 mi WSW 3.5 mph - N/A   Overcast
10:08 AM 32.0 °F 28.7 °F 32.0 °F 100% 29.69 in 1.2 mi WSW 3.5 mph - N/A   Overcast
10:13 AM 32.0 °F 28.7 °F 32.0 °F 100% 29.69 in 3.0 mi WSW 3.5 mph - N/A   Overcast
10:26 AM 32.0 °F 28.7 °F 32.0 °F 100% 29.69 in 2.5 mi SSW 3.5 mph - N/A   Overcast
10:31 AM 32.0 °F - 32.0 °F 100% 29.69 in 1.2 mi SSW 2.3 mph - N/A   Overcast
10:36 AM 32.0 °F 28.7 °F 32.0 °F 100% 29.69 in 0.8 mi SSW 3.5 mph - N/A   Mist
10:41 AM 32.0 °F 26.4 °F 32.0 °F 100% 29.69 in 0.8 mi SSW 5.8 mph - N/A   Mist
10:46 AM 32.0 °F 24.8 °F 32.0 °F 100% 29.69 in 1.5 mi SW 8.1 mph - N/A   Overcast
10:51 AM 32.0 °F 24.8 °F 32.0 °F 100% 29.69 in 2.0 mi SW 8.1 mph - N/A   Overcast
10:56 AM 32.0 °F 24.8 °F 32.0 °F 100% 29.70 in 1.8 mi SW 8.1 mph - N/A   Light Drizzle
10:58 AM 32.2 °F 25.0 °F 32.2 °F 100% 29.77 in 1.8 mi SW 8.1 mph - 0.00 in   Light Drizzle
11:08 AM 32.0 °F 25.6 °F 32.0 °F 100% 29.70 in 1.8 mi SW 6.9 mph - N/A   Overcast
11:13 AM 32.0 °F 25.6 °F 32.0 °F 100% 29.70 in 2.0 mi SW 6.9 mph - N/A   Overcast
11:18 AM 32.0 °F 26.4 °F 32.0 °F 100% 29.70 in 2.5 mi SW 5.8 mph - N/A   Light Drizzle
11:27 AM 32.0 °F 24.8 °F 32.0 °F 100% 29.70 in 3.0 mi SW 8.1 mph - N/A   Overcast
11:42 AM 32.0 °F 25.6 °F 32.0 °F 100% 29.71 in 7.0 mi SW 6.9 mph - N/A   Overcast
11:52 AM 32.0 °F 23.0 °F 32.0 °F 100% 29.71 in 10.0 mi SW 11.5 mph - N/A   Overcast
11:58 AM 31.8 °F 22.8 °F 31.8 °F 100% 29.78 in 10.0 mi SW 11.5 mph - 0.00 in   Overcast
12:01 PM 32.0 °F 23.0 °F 32.0 °F 100% 29.71 in 10.0 mi SW 11.5 mph - N/A   Light Drizzle
12:31 PM 32.0 °F 24.8 °F 32.0 °F 100% 29.72 in 5.0 mi SSW 8.1 mph - N/A Snow Light Snow
12:41 PM 32.0 °F 24.8 °F 32.0 °F 100% 29.72 in 3.0 mi SSW 8.1 mph - N/A Snow Light Snow
12:46 PM 32.0 °F 24.8 °F 32.0 °F 100% 29.72 in 2.0 mi SSW 8.1 mph - N/A Snow Light Snow
12:51 PM 32.0 °F 26.4 °F 32.0 °F 100% 29.72 in 2.0 mi SSW 5.8 mph - N/A Snow Light Snow
12:56 PM 32.0 °F 25.6 °F 32.0 °F 100% 29.73 in 1.8 mi SW 6.9 mph - N/A Snow Light Snow
12:58 PM 32.0 °F 25.6 °F 32.0 °F 100% 29.80 in 1.8 mi SW 6.9 mph - 0.00 in Snow Light Snow
1:08 PM 32.0 °F 26.4 °F 32.0 °F 100% 29.73 in 2.0 mi SSW 5.8 mph - N/A Snow Light Snow
1:23 PM 32.0 °F 27.5 °F 32.0 °F 100% 29.74 in 1.8 mi SW 4.6 mph - N/A Snow Light Snow
1:43 PM 32.0 °F 24.8 °F 32.0 °F 100% 29.74 in 1.5 mi SW 8.1 mph - N/A Snow Light Snow
1:53 PM 32.0 °F 26.4 °F 32.0 °F 100% 29.75 in 1.0 mi SW 5.8 mph - N/A Snow Light Snow
1:58 PM 32.0 °F 26.4 °F 32.0 °F 100% 29.82 in 0.8 mi SW 5.8 mph - 0.01 in Snow Light Snow
2:03 PM 32.0 °F 26.4 °F 32.0 °F 100% 29.75 in 1.0 mi SW 5.8 mph - N/A Snow Light Snow
2:08 PM 32.0 °F 27.5 °F 32.0 °F 100% 29.75 in 1.0 mi SW 4.6 mph - N/A Snow Light Snow
2:18 PM 32.0 °F 27.5 °F 32.0 °F 100% 29.76 in 1.2 mi SW 4.6 mph - N/A Snow Light Snow
2:19 PM 32.0 °F 27.5 °F 32.0 °F 100% 29.76 in 1.2 mi SW 4.6 mph - N/A Snow Light Snow
2:24 PM 32.0 °F 26.4 °F 32.0 °F 100% 29.76 in 1.5 mi SW 5.8 mph - N/A Snow Light Snow
2:29 PM 32.0 °F 26.4 °F 32.0 °F 100% 29.76 in 2.0 mi SW 5.8 mph - N/A Snow Light Snow
2:34 PM 32.0 °F 27.5 °F 32.0 °F 100% 29.76 in 2.0 mi SW 4.6 mph - N/A Snow Light Snow
2:49 PM 32.0 °F 26.4 °F 32.0 °F 100% 29.77 in 3.0 mi SW 5.8 mph - N/A Snow Light Snow
2:58 PM 31.5 °F 25.8 °F 31.5 °F 100% 29.84 in 3.0 mi SSW 5.8 mph - 0.04 in Snow Light Snow
3:08 PM 32.0 °F 26.4 °F 32.0 °F 100% 29.77 in 2.5 mi SSW 5.8 mph - N/A Snow Light Snow
3:18 PM 32.0 °F 27.5 °F 32.0 °F 100% 29.78 in 3.0 mi South 4.6 mph - N/A Snow Light Snow
3:48 PM 32.0 °F 27.5 °F 32.0 °F 100% 29.79 in 4.0 mi SSW 4.6 mph - N/A Snow Light Snow
3:58 PM 31.5 °F 26.8 °F 31.5 °F 100% 29.86 in 3.0 mi SSW 4.6 mph - 0.01 in Snow Light Snow
4:03 PM 32.0 °F 27.5 °F 32.0 °F 100% 29.79 in 2.5 mi SW 4.6 mph - N/A Snow Light Snow
4:08 PM 32.0 °F 27.5 °F 32.0 °F 100% 29.79 in 3.0 mi SW 4.6 mph - N/A Snow Light Snow
4:18 PM 32.0 °F 27.5 °F 32.0 °F 100% 29.80 in 2.5 mi SW 4.6 mph - N/A Snow Light Snow
4:23 PM 32.0 °F 27.5 °F 32.0 °F 100% 29.80 in 2.0 mi SW 4.6 mph - N/A Snow Light Snow
4:33 PM 32.0 °F 27.5 °F 32.0 °F 100% 29.80 in 4.0 mi SW 4.6 mph - N/A Snow Light Snow
4:38 PM 32.0 °F 27.5 °F 32.0 °F 100% 29.80 in 5.0 mi SW 4.6 mph - N/A Snow Light Snow
4:43 PM 32.0 °F 27.5 °F 32.0 °F 100% 29.81 in 7.0 mi SSW 4.6 mph - N/A Snow Light Snow
4:58 PM 30.9 °F 25.2 °F 30.9 °F 100% 29.88 in 8.0 mi SW 5.8 mph - 0.00 in Snow Light Snow
5:08 PM 32.0 °F 26.4 °F 32.0 °F 100% 29.82 in 10.0 mi SW 5.8 mph - N/A Snow Light Snow
5:23 PM 32.0 °F 26.4 °F 32.0 °F 100% 29.82 in 10.0 mi SW 5.8 mph - N/A Snow Light Snow
5:28 PM 32.0 °F 26.4 °F 32.0 °F 100% 29.82 in 10.0 mi SSW 5.8 mph - N/A Snow Light Snow
5:38 PM 32.0 °F 27.5 °F 32.0 °F 100% 29.82 in 10.0 mi SSW 4.6 mph - N/A Snow Light Snow
5:48 PM 32.0 °F 28.7 °F 32.0 °F 100% 29.83 in 4.0 mi SW 3.5 mph - N/A Snow Light Snow
5:53 PM 32.0 °F 28.7 °F 32.0 °F 100% 29.83 in 4.0 mi SW 3.5 mph - N/A Snow Light Snow
5:58 PM 30.7 °F 26.0 °F 30.7 °F 100% 29.90 in 5.0 mi SW 4.6 mph - 0.00 in Snow Light Snow
6:23 PM 32.0 °F 25.6 °F 32.0 °F 100% 29.83 in 10.0 mi SW 6.9 mph - N/A Snow Light Snow
6:28 PM 32.0 °F 26.4 °F 32.0 °F 100% 29.83 in 10.0 mi SW 5.8 mph - N/A Snow Light Snow
6:29 PM 32.0 °F 26.4 °F 32.0 °F 100% 29.84 in 10.0 mi SW 5.8 mph - N/A   Overcast
6:34 PM 32.0 °F 26.4 °F 32.0 °F 100% 29.84 in 10.0 mi WSW 5.8 mph - N/A   Overcast
6:54 PM 32.0 °F 26.4 °F 32.0 °F 100% 29.84 in 10.0 mi SW 5.8 mph - N/A   Overcast
6:58 PM 30.6 °F 24.7 °F 30.6 °F 100% 29.91 in 10.0 mi SW 5.8 mph - 0.00 in   Overcast
7:37 PM 32.0 °F 27.5 °F 32.0 °F 100% 29.85 in 10.0 mi SSW 4.6 mph - N/A   Overcast
7:58 PM 30.7 °F 24.9 °F 30.7 °F 100% 29.93 in 10.0 mi South 5.8 mph - 0.00 in Snow Light Snow
8:33 PM 32.0 °F 26.4 °F 32.0 °F 100% 29.87 in 10.0 mi WSW 5.8 mph - N/A   Overcast
8:43 PM 32.0 °F 26.4 °F 32.0 °F 100% 29.87 in 10.0 mi SW 5.8 mph - N/A   Overcast
8:53 PM 32.0 °F 26.4 °F 32.0 °F 100% 29.88 in 10.0 mi WSW 5.8 mph - N/A   Overcast
8:57 PM 32.0 °F 26.4 °F 32.0 °F 100% 29.88 in 10.0 mi WSW 5.8 mph - N/A   Overcast
8:58 PM 30.6 °F 23.8 °F 30.6 °F 100% 29.95 in 10.0 mi WSW 6.9 mph - 0.00 in   Overcast
9:02 PM 32.0 °F 25.6 °F 32.0 °F 100% 29.88 in 9.0 mi WSW 6.9 mph - N/A   Overcast
9:12 PM 32.0 °F 25.6 °F 32.0 °F 100% 29.88 in 1.8 mi SW 6.9 mph - N/A   Overcast
9:17 PM 30.2 °F 24.3 °F 30.2 °F 100% 29.88 in 2.0 mi SW 5.8 mph - N/A   Overcast
9:22 PM 30.2 °F 23.4 °F 30.2 °F 100% 29.89 in 4.0 mi SW 6.9 mph - N/A   Overcast
9:48 PM 30.2 °F 25.4 °F 30.2 °F 100% 29.90 in 10.0 mi SW 4.6 mph - N/A   Overcast
9:55 PM 30.2 °F 24.3 °F 30.2 °F 100% 29.90 in 10.0 mi WSW 5.8 mph - N/A   Overcast
9:58 PM 30.2 °F 24.3 °F 30.2 °F 100% 29.97 in 10.0 mi SW 5.8 mph - 0.00 in   Overcast
9:59 PM 30.2 °F 24.3 °F 30.2 °F 100% 29.91 in 10.0 mi WSW 5.8 mph - N/A   Overcast
10:19 PM 30.2 °F 24.3 °F 30.2 °F 100% 29.92 in 7.0 mi WSW 5.8 mph - N/A Snow Light Snow
10:34 PM 30.2 °F 25.4 °F 30.2 °F 100% 29.92 in 4.0 mi West 4.6 mph - N/A Snow Light Snow
10:49 PM 30.2 °F 24.3 °F 30.2 °F 100% 29.92 in 5.0 mi SW 5.8 mph - N/A Snow Light Snow
10:54 PM 30.2 °F 25.4 °F 30.2 °F 100% 29.92 in 7.0 mi WSW 4.6 mph - N/A Snow Light Snow
10:58 PM 29.8 °F 24.9 °F 29.8 °F 100% 29.99 in 9.0 mi WSW 4.6 mph - 0.00 in Snow Light Snow
11:00 PM 30.2 °F 25.4 °F 30.2 °F 100% 29.92 in 10.0 mi SW 4.6 mph - N/A   Overcast
11:05 PM 30.2 °F 24.3 °F 30.2 °F 100% 29.92 in 10.0 mi WSW 5.8 mph - N/A   Overcast
11:30 PM 30.2 °F 25.4 °F 30.2 °F 100% 29.92 in 10.0 mi West 4.6 mph - N/A   Overcast
11:35 PM 30.2 °F 25.4 °F 30.2 °F 100% 29.93 in 10.0 mi West 4.6 mph - N/A   Overcast
11:40 PM 30.2 °F 25.4 °F 30.2 °F 100% 29.93 in 10.0 mi West 4.6 mph - N/A   Overcast
11:58 PM 29.8 °F 26.3 °F 29.8 °F 100% 30.00 in 10.0 mi West 3.5 mph - 0.00 in   Overcast